| time (UTC) | temp F | wind direction | speed knots | gust knots | rain 1hr in | rain 24hr in | rain mn in | humidity % | barometer mb |
| 20260901095607 | 62 | 45 | 0.0 | 0.0 | 0.00 | 0.03 | 0.01 | 85 | 1018.4 |
| 20260901094601 | 62 | 45 | 0.0 | 0.9 | 0.00 | 0.03 | 0.01 | 86 | 1018.5 |
| 20260901093559 | 62 | 45 | 0.0 | 0.9 | 0.00 | 0.03 | 0.01 | 86 | 1018.6 |
| 20260901092559 | 62 | 45 | 0.0 | 0.9 | 0.00 | 0.03 | 0.01 | 86 | 1018.7 |
| 20260901091600 | 62 | 45 | 0.0 | 0.0 | 0.00 | 0.03 | 0.01 | 86 | 1018.8 |
| 20260901090601 | 62 | 45 | 0.0 | 0.0 | 0.00 | 0.03 | 0.01 | 87 | 1019.0 |
| 20260901085601 | 62 | 45 | 0.0 | 0.0 | 0.00 | 0.03 | 0.01 | 87 | 1019.0 |
| 20260901084559 | 62 | 45 | 0.0 | 0.0 | 0.00 | 0.03 | 0.01 | 86 | 1019.1 |
| 20260901083601 | 63 | 45 | 0.9 | 1.7 | 0.00 | 0.03 | 0.01 | 86 | 1018.8 |
| 20260901082600 | 62 | 45 | 0.0 | 1.7 | 0.00 | 0.03 | 0.01 | 87 | 1019.3 |
| 20260901081554 | 62 | 45 | 0.9 | 2.6 | 0.00 | 0.03 | 0.01 | 86 | 1019.4 |
| 20260901080553 | 62 | 45 | 0.0 | 1.7 | 0.00 | 0.03 | 0.01 | 87 | 1019.7 |
| 20260901080032 | 63 | 45 | 0.0 | 0.0 | 0.00 | 0.03 | 0.01 | 87 | 1019.8 |
| 20260901075036 | 63 | 45 | 0.0 | 2.6 | 0.00 | 0.03 | 0.01 | 86 | 1019.9 |
| 20260901073554 | 63 | 45 | 0.9 | 1.7 | 0.00 | 0.03 | 0.01 | 84 | 1020.0 |
| 20260901072555 | 63 | 45 | 0.0 | 0.9 | 0.00 | 0.03 | 0.01 | 83 | 1019.9 |
| 20260901072037 | 63 | 168 | 0.9 | 2.6 | 0.01 | 0.03 | 0.01 | 84 | 1020.0 |
| 20260901070553 | 63 | 52 | 0.0 | 0.9 | 0.01 | 0.03 | 0.01 | 87 | 1020.0 |
| 20260901065553 | 63 | 52 | 0.0 | 1.7 | 0.01 | 0.03 | 0.01 | 87 | 1019.8 |
| 20260901064548 | 63 | 85 | 0.0 | 0.0 | 0.01 | 0.03 | 0.01 | 86 | 1019.8 |
| 20260901063548 | 63 | 85 | 0.9 | 3.5 | 0.01 | 0.03 | 0.01 | 86 | 1019.8 |
| 20260901062548 | 64 | 140 | 0.0 | 2.6 | 0.01 | 0.03 | 0.01 | 84 | 1019.3 |
| 20260901061548 | 64 | 149 | 1.7 | 4.3 | 0.00 | 0.02 | 0.00 | 84 | 1020.1 |
| 20260901060547 | 62 | 225 | 0.0 | 0.9 | 0.00 | 0.02 | 0.00 | 87 | 1019.7 |
| 20260901055548 | 63 | 231 | 0.0 | 0.0 | 0.00 | 0.02 | 0.02 | 86 | 1019.5 |
| 20260901054945 | 63 | 231 | 0.0 | 0.0 | 0.00 | 0.02 | 0.02 | 84 | 1019.4 |
| 20260901054726 | 63 | 231 | 0.0 | 0.9 | 0.00 | 0.02 | 0.02 | 86 | 1019.4 |
| 20260901053034 | 63 | 231 | 0.0 | 0.9 | 0.00 | 0.02 | 0.02 | 85 | 1019.7 |
| 20260901051542 | 64 | 231 | 0.0 | 0.9 | 0.00 | 0.02 | 0.02 | 84 | 1019.8 |
| 20260901050541 | 64 | 226 | 0.0 | 2.6 | 0.00 | 0.02 | 0.02 | 84 | 1019.9 |
| 20260901045541 | 63 | 224 | 0.9 | 3.5 | 0.00 | 0.02 | 0.02 | 85 | 1019.9 |
| 20260901045024 | 63 | 224 | 0.0 | 1.7 | 0.00 | 0.02 | 0.02 | 86 | 1020.0 |
| 20260901043541 | 63 | 224 | 0.9 | 3.5 | 0.00 | 0.02 | 0.02 | 86 | 1020.1 |
| 20260901042541 | 62 | 297 | 0.0 | 1.7 | 0.00 | 0.02 | 0.02 | 86 | 1019.7 |
| 20260901042014 | 63 | 297 | 0.0 | 0.9 | 0.00 | 0.02 | 0.02 | 86 | 1019.7 |
| 20260901040542 | 63 | 328 | 0.0 | 0.0 | 0.00 | 0.02 | 0.02 | 87 | 1019.7 |
| 20260901040021 | 63 | 321 | 0.9 | 2.6 | 0.00 | 0.02 | 0.02 | 87 | 1019.8 |
| 20260901035455 | 63 | 185 | 0.0 | 1.7 | 0.01 | 0.02 | 0.02 | 84 | 1020.4 |
| 20260901033535 | 64 | 52 | 0.9 | 5.2 | 0.02 | 0.02 | 0.02 | 84 | 1020.8 |
| 20260901032536 | 65 | 53 | 2.6 | 7.8 | 0.02 | 0.02 | 0.02 | 81 | 1020.9 |
| 20260901031536 | 65 | 101 | 0.9 | 3.5 | 0.02 | 0.02 | 0.02 | 79 | 1021.4 |
| 20260901030536 | 65 | 178 | 0.0 | 5.2 | 0.02 | 0.02 | 0.02 | 79 | 1021.2 |
| 20260901025534 | 66 | 166 | 4.3 | 7.8 | 0.02 | 0.02 | 0.02 | 74 | 1021.1 |
| 20260901024536 | 67 | 145 | 13.0 | 21.7 | 0.01 | 0.01 | 0.02 | 71 | 1020.9 |
| 20260901023536 | 72 | 156 | 6.1 | 16.5 | 0.00 | 0.00 | 0.00 | 55 | 1020.1 |
| 20260901022537 | 72 | 262 | 0.9 | 2.6 | 0.00 | 0.00 | 0.00 | 53 | 1019.0 |
| 20260901022011 | 72 | 225 | 0.9 | 2.6 | 0.00 | 0.00 | 0.00 | 54 | 1018.6 |
| 20260901020534 | 72 | 225 | 0.9 | 2.6 | 0.00 | 0.00 | 0.00 | 55 | 1018.5 |
| 20260901020016 | 72 | 232 | 1.7 | 4.3 | 0.00 | 0.00 | 0.00 | 55 | 1018.4 |
| 20260901014533 | 72 | 225 | 1.7 | 5.2 | 0.00 | 0.00 | 0.00 | 56 | 1018.5 |
| 20260901013532 | 72 | 276 | 2.6 | 7.8 | 0.00 | 0.00 | 0.00 | 57 | 1018.6 |
| 20260901013012 | 72 | 225 | 4.3 | 8.7 | 0.00 | 0.00 | 0.00 | 57 | 1018.6 |
| 20260901011533 | 73 | 199 | 6.1 | 17.4 | 0.00 | 0.00 | 0.00 | 55 | 1018.5 |
| 20260901010532 | 73 | 165 | 7.8 | 16.5 | 0.00 | 0.00 | 0.00 | 53 | 1018.4 |
| 20260901005534 | 73 | 233 | 6.1 | 12.2 | 0.00 | 0.00 | 0.00 | 53 | 1018.3 |
| 20260901004533 | 73 | 234 | 7.8 | 16.5 | 0.00 | 0.00 | 0.00 | 53 | 1018.6 |
| 20260901003532 | 74 | 210 | 8.7 | 19.1 | 0.00 | 0.00 | 0.00 | 51 | 1018.4 |
| 20260901002532 | 78 | 211 | 5.2 | 13.0 | 0.00 | 0.00 | 0.00 | 38 | 1018.0 |
| 20260901001533 | 79 | 224 | 4.3 | 11.3 | 0.00 | 0.00 | 0.00 | 38 | 1017.9 |
| 20260901000532 | 79 | 260 | 5.2 | 11.3 | 0.00 | 0.00 | 0.00 | 38 | 1017.7 |
| 20260831235532 | 80 | 266 | 5.2 | 12.2 | 0.00 | 0.00 | 0.00 | 37 | 1017.7 |
| 20260831234534 | 80 | 284 | 5.2 | 10.4 | 0.00 | 0.00 | 0.00 | 36 | 1017.7 |
| 20260831233534 | 81 | 225 | 5.2 | 11.3 | 0.00 | 0.00 | 0.00 | 36 | 1017.6 |
| 20260831232532 | 82 | 294 | 2.6 | 5.2 | 0.00 | 0.00 | 0.00 | 36 | 1017.6 |
| 20260831231533 | 83 | 302 | 1.7 | 3.5 | 0.00 | 0.00 | 0.00 | 35 | 1017.7 |
| 20260831230532 | 83 | 342 | 0.0 | 0.9 | 0.00 | 0.00 | 0.00 | 35 | 1017.7 |
| 20260831225530 | 83 | 343 | 0.0 | 3.5 | 0.00 | 0.00 | 0.00 | 32 | 1017.8 |
| 20260831224532 | 84 | 79 | 0.0 | 3.5 | 0.00 | 0.00 | 0.00 | 33 | 1017.8 |
| 20260831223531 | 83 | 79 | 0.9 | 2.6 | 0.00 | 0.00 | 0.00 | 35 | 1017.8 |
| 20260831222526 | 83 | 79 | 0.9 | 4.3 | 0.00 | 0.00 | 0.00 | 32 | 1017.9 |
| 20260831221525 | 83 | 52 | 0.9 | 3.5 | 0.00 | 0.00 | 0.00 | 34 | 1018.0 |
| 20260831220524 | 83 | 53 | 1.7 | 5.2 | 0.00 | 0.00 | 0.00 | 32 | 1018.0 |
| 20260831215524 | 83 | 82 | 2.6 | 7.0 | 0.00 | 0.00 | 0.00 | 35 | 1018.0 |
| 20260831215003 | 83 | 52 | 2.6 | 5.2 | 0.00 | 0.00 | 0.00 | 33 | 1018.0 |
| 20260831213525 | 83 | 92 | 2.6 | 6.1 | 0.00 | 0.00 | 0.00 | 32 | 1018.1 |
| 20260831213007 | 83 | 91 | 2.6 | 7.8 | 0.00 | 0.00 | 0.00 | 34 | 1018.4 |
| 20260831211526 | 83 | 47 | 2.6 | 7.0 | 0.00 | 0.00 | 0.00 | 33 | 1018.6 |
| 20260831210524 | 82 | 53 | 2.6 | 7.0 | 0.00 | 0.00 | 0.00 | 33 | 1018.6 |
| 20260831205517 | 83 | 79 | 2.6 | 7.0 | 0.00 | 0.00 | 0.00 | 35 | 1018.7 |
| 20260831204516 | 82 | 79 | 3.5 | 7.8 | 0.00 | 0.00 | 0.00 | 33 | 1018.8 |
| 20260831203518 | 83 | 52 | 2.6 | 6.1 | 0.00 | 0.00 | 0.00 | 34 | 1019.0 |
| 20260831202517 | 83 | 52 | 1.7 | 5.2 | 0.00 | 0.01 | 0.00 | 34 | 1019.1 |
| 20260831201517 | 83 | 48 | 1.7 | 6.1 | 0.00 | 0.09 | 0.00 | 37 | 1019.3 |
| 20260831200516 | 83 | 81 | 1.7 | 5.2 | 0.00 | 0.09 | 0.00 | 37 | 1019.3 |
| 20260831195516 | 82 | 44 | 1.7 | 4.3 | 0.00 | 0.09 | 0.00 | 41 | 1019.4 |
| 20260831194518 | 82 | 53 | 1.7 | 6.1 | 0.00 | 0.09 | 0.00 | 43 | 1019.5 |
| 20260831193957 | 80 | 70 | 2.6 | 10.4 | 0.00 | 0.09 | 0.00 | 43 | 1019.7 |
| 20260831192512 | 80 | 79 | 1.7 | 6.1 | 0.00 | 0.11 | 0.00 | 42 | 1019.8 |
| 20260831191510 | 81 | 46 | 1.7 | 5.2 | 0.00 | 0.11 | 0.00 | 41 | 1019.9 |
| 20260831190510 | 80 | 94 | 2.6 | 7.0 | 0.00 | 0.11 | 0.00 | 40 | 1020.1 |
| 20260831185510 | 80 | 98 | 1.7 | 6.1 | 0.00 | 0.11 | 0.00 | 41 | 1020.2 |
| 20260831184511 | 79 | 80 | 1.7 | 6.1 | 0.00 | 0.11 | 0.00 | 44 | 1020.2 |
| 20260831183512 | 79 | 46 | 1.7 | 4.3 | 0.00 | 0.11 | 0.00 | 42 | 1020.4 |
| 20260831182510 | 78 | 46 | 0.9 | 2.6 | 0.00 | 0.11 | 0.00 | 44 | 1020.5 |
| 20260831181510 | 77 | 46 | 0.0 | 2.6 | 0.00 | 0.11 | 0.00 | 44 | 1020.6 |
| 20260831180511 | 77 | 46 | 0.0 | 1.7 | 0.00 | 0.11 | 0.00 | 45 | 1020.7 |
| 20260831175508 | 77 | 46 | 0.0 | 2.6 | 0.00 | 0.11 | 0.00 | 46 | 1020.8 |
| 20260831174508 | 76 | 47 | 0.9 | 4.3 | 0.00 | 0.11 | 0.00 | 46 | 1020.8 |
| 20260831173509 | 76 | 79 | 0.0 | 1.7 | 0.00 | 0.11 | 0.00 | 48 | 1020.7 |
| 20260831172509 | 76 | 79 | 0.0 | 1.7 | 0.00 | 0.11 | 0.00 | 48 | 1020.8 |
| 20260831171508 | 75 | 79 | 0.0 | 1.7 | 0.00 | 0.11 | 0.00 | 50 | 1020.8 |
| 20260831170508 | 74 | 79 | 0.9 | 2.6 | 0.00 | 0.11 | 0.00 | 52 | 1020.8 |
| 20260831165508 | 74 | 79 | 0.9 | 3.5 | 0.00 | 0.11 | 0.00 | 54 | 1020.8 |
| 20260831164510 | 74 | 79 | 0.0 | 3.5 | 0.00 | 0.11 | 0.00 | 52 | 1020.8 |
| 20260831163507 | 74 | 79 | 0.9 | 3.5 | 0.00 | 0.11 | 0.00 | 54 | 1020.7 |
| 20260831162507 | 73 | 79 | 0.9 | 3.5 | 0.00 | 0.11 | 0.00 | 52 | 1020.7 |
| 20260831161506 | 74 | 79 | 0.0 | 1.7 | 0.00 | 0.11 | 0.00 | 54 | 1020.6 |
| 20260831160507 | 73 | 79 | 0.0 | 2.6 | 0.00 | 0.11 | 0.00 | 53 | 1020.5 |
| 20260831155506 | 74 | 79 | 0.0 | 2.6 | 0.00 | 0.11 | 0.00 | 50 | 1020.5 |
| 20260831154506 | 74 | 81 | 0.0 | 1.7 | 0.00 | 0.11 | 0.00 | 47 | 1020.5 |
| 20260831153506 | 73 | 94 | 0.0 | 1.7 | 0.00 | 0.11 | 0.00 | 50 | 1020.2 |
| 20260831152505 | 72 | 95 | 0.0 | 1.7 | 0.00 | 0.11 | 0.00 | 52 | 1020.4 |
| 20260831151859 | 71 | 143 | 0.0 | 1.7 | 0.00 | 0.11 | 0.00 | 54 | 1020.4 |
| 20260831151637 | 72 | 95 | 0.0 | 1.7 | 0.00 | 0.11 | 0.00 | 53 | 1020.5 |
| 20260831145500 | 70 | 98 | 1.7 | 6.1 | 0.00 | 0.11 | 0.00 | 56 | 1020.5 |
| 20260831144501 | 69 | 91 | 1.7 | 5.2 | 0.00 | 0.11 | 0.00 | 57 | 1020.5 |
| 20260831143459 | 69 | 81 | 0.9 | 3.5 | 0.00 | 0.11 | 0.00 | 61 | 1020.5 |
| 20260831142501 | 67 | 93 | 0.9 | 2.6 | 0.00 | 0.11 | 0.00 | 63 | 1020.4 |
| 20260831141500 | 66 | 167 | 1.7 | 2.6 | 0.00 | 0.11 | 0.00 | 66 | 1020.2 |
| 20260831140459 | 64 | 123 | 0.0 | 2.6 | 0.00 | 0.11 | 0.00 | 71 | 1020.1 |
| 20260831135500 | 63 | 193 | 0.9 | 2.6 | 0.00 | 0.11 | 0.00 | 75 | 1020.0 |
| 20260831134501 | 62 | 47 | 0.0 | 0.0 | 0.00 | 0.11 | 0.00 | 76 | 1019.8 |
| 20260831133455 | 62 | 47 | 0.0 | 2.6 | 0.00 | 0.11 | 0.00 | 72 | 1019.7 |
| 20260831132453 | 62 | 47 | 0.0 | 0.9 | 0.00 | 0.11 | 0.00 | 72 | 1019.5 |
| 20260831131938 | 61 | 47 | 0.9 | 2.6 | 0.00 | 0.11 | 0.00 | 74 | 1019.5 |
| 20260831130455 | 61 | 227 | 0.0 | 0.9 | 0.00 | 0.11 | 0.00 | 74 | 1019.4 |
| 20260831125453 | 61 | 86 | 0.0 | 0.9 | 0.00 | 0.11 | 0.00 | 72 | 1019.1 |
| 20260831124451 | 62 | 86 | 0.0 | 0.9 | 0.00 | 0.11 | 0.00 | 72 | 1019.1 |
| 20260831123453 | 62 | 86 | 0.9 | 2.6 | 0.00 | 0.11 | 0.00 | 69 | 1019.0 |
| 20260831122452 | 62 | 86 | 0.0 | 2.6 | 0.00 | 0.11 | 0.00 | 69 | 1018.8 |
| 20260831121453 | 63 | 340 | 0.0 | 0.0 | 0.00 | 0.11 | 0.00 | 67 | 1018.6 |
| 20260831120452 | 63 | 340 | 0.9 | 2.6 | 0.00 | 0.11 | 0.00 | 65 | 1018.6 |
| 20260831115452 | 63 | 340 | 0.0 | 0.0 | 0.00 | 0.11 | 0.00 | 68 | 1018.7 |
| 20260831114452 | 63 | 340 | 0.9 | 2.6 | 0.00 | 0.11 | 0.00 | 66 | 1018.6 |
| 20260831113452 | 63 | 340 | 0.0 | 1.7 | 0.00 | 0.11 | 0.00 | 71 | 1018.5 |
| 20260831112938 | 62 | 224 | 0.9 | 2.6 | 0.00 | 0.11 | 0.00 | 72 | 1018.4 |
| 20260831111930 | 63 | 169 | 0.0 | 1.7 | 0.00 | 0.11 | 0.00 | 70 | 1018.3 |
| 20260831110452 | 62 | 148 | 0.0 | 0.9 | 0.00 | 0.11 | 0.00 | 72 | 1018.4 |
| 20260831105453 | 62 | 98 | 0.0 | 2.6 | 0.00 | 0.11 | 0.00 | 72 | 1018.4 |
| 20260831104451 | 63 | 98 | 0.9 | 2.6 | 0.00 | 0.11 | 0.00 | 70 | 1018.4 |
| 20260831103453 | 63 | 53 | 0.0 | 1.7 | 0.00 | 0.11 | 0.00 | 68 | 1018.4 |
| 20260831102452 | 64 | 53 | 0.9 | 4.3 | 0.00 | 0.11 | 0.00 | 65 | 1018.0 |
| 20260831101453 | 65 | 96 | 1.7 | 3.5 | 0.00 | 0.11 | 0.00 | 60 | 1018.1 |
| 20260831100454 | 66 | 46 | 0.9 | 4.3 | 0.00 | 0.11 | 0.00 | 58 | 1018.0 |